{"data":{"norad_id":63515,"intl_designator":"2025-071Y","name":"STARLINK-33796","alt_names":[],"object_type":"PAYLOAD","status":"ACTIVE","operator":null,"country":"US","launch_date":"2025-04-07","launch_site_code":"AFWTR","launch_vehicle":null,"mission":null,"orbit_class":"UNKNOWN","rcs_meters":null,"size_class":null,"mass_kg":null,"dimensions":null,"purposes":["comms"],"wikipedia_slug":null,"has_3d_model":false,"image_url":null,"decayed_at":null,"tle_current":{"epoch":"2026-09-20T11:06:15.860448Z","epoch_age_seconds":158957,"freshness":"FRESH","line1":"1 63515U 25071Y   26263.46268357  .00013318  00000+0  40468-3 0  9995","line2":"2 63515  53.1604 313.5454 0001182  77.3177 282.7958 15.34393976 82618","mean_motion":15.34393976,"eccentricity":0.0001182,"inclination_deg":53.1604,"raan_deg":313.5454,"arg_perigee_deg":77.3177,"mean_anomaly_deg":282.7958,"bstar":0.00040468,"rev_number":8261,"period_min":93.848126525752,"perigee_km":461.91255543046,"apogee_km":463.52973429591,"semimajor_km":6840.8581448632,"source":"CELESTRAK","updated_at":"2026-09-21T09:00:35.017758Z"}}}